Year,Month,Day,Hour,Minute,Value (Times are PST for temperature in C)
2022,01,29,00,00,1.90
2022,01,29,00,01,1.70
2022,01,29,00,02,1.50
2022,01,29,00,03,1.50
2022,01,29,00,04,3.70
2022,01,29,00,05,1.50
2022,01,29,00,06,1.50
2022,01,29,00,07,2.50
2022,01,29,00,08,3.90
2022,01,29,00,09,2.40
2022,01,29,00,10,1.10
2022,01,29,00,11,1.30
2022,01,29,00,12,1.30
2022,01,29,00,13,1.30
2022,01,29,00,14,1.30
2022,01,29,00,15,1.60
2022,01,29,00,16,1.50
2022,01,29,00,17,1.40
2022,01,29,00,18,1.40
2022,01,29,00,19,1.50
2022,01,29,00,20,1.60
2022,01,29,00,21,1.90
2022,01,29,00,22,1.80
2022,01,29,00,23,1.60
2022,01,29,00,24,1.70
2022,01,29,00,25,1.60
2022,01,29,00,26,1.60
2022,01,29,00,27,1.60
2022,01,29,00,28,1.80
2022,01,29,00,29,2.00
2022,01,29,00,30,2.10
2022,01,29,00,31,2.10
2022,01,29,00,32,2.10
2022,01,29,00,33,1.10
2022,01,29,00,34,1.20
2022,01,29,00,35,1.40
2022,01,29,00,36,1.90
2022,01,29,00,37,1.90
2022,01,29,00,38,2.70
2022,01,29,00,39,4.40
2022,01,29,00,40,3.40
2022,01,29,00,41,1.60
2022,01,29,00,42,1.40
2022,01,29,00,43,1.30
2022,01,29,00,44,1.30
2022,01,29,00,45,1.30
2022,01,29,00,46,1.40
2022,01,29,00,47,1.40
2022,01,29,00,48,1.60
2022,01,29,00,49,1.50
2022,01,29,00,50,1.50
2022,01,29,00,51,1.50
2022,01,29,00,52,1.50
2022,01,29,00,53,1.60
2022,01,29,00,54,1.70
2022,01,29,00,55,1.70
2022,01,29,00,56,1.80
2022,01,29,00,57,1.80
2022,01,29,00,58,1.70
2022,01,29,00,59,1.80
2022,01,29,01,00,1.60
2022,01,29,01,01,1.40
2022,01,29,01,02,1.40
2022,01,29,01,03,1.40
2022,01,29,01,04,1.40
2022,01,29,01,05,1.50
2022,01,29,01,06,1.50
2022,01,29,01,07,1.50
2022,01,29,01,08,1.70
2022,01,29,01,09,1.50
2022,01,29,01,10,1.60
2022,01,29,01,11,1.60
2022,01,29,01,12,1.40
2022,01,29,01,13,1.40
2022,01,29,01,14,1.40
2022,01,29,01,15,1.60
2022,01,29,01,16,1.60
2022,01,29,01,17,1.60
2022,01,29,01,18,1.50
2022,01,29,01,19,1.40
2022,01,29,01,20,1.40
2022,01,29,01,21,1.50
2022,01,29,01,22,1.60
2022,01,29,01,23,1.60
2022,01,29,01,24,1.60
2022,01,29,01,25,1.60
2022,01,29,01,26,1.80
2022,01,29,01,27,1.90
2022,01,29,01,28,1.90
2022,01,29,01,29,1.80
2022,01,29,01,30,1.10
2022,01,29,01,31,0.70
2022,01,29,01,32,0.70
2022,01,29,01,33,0.70
2022,01,29,01,34,0.80
2022,01,29,01,35,1.00
2022,01,29,01,36,1.00
2022,01,29,01,37,1.20
2022,01,29,01,38,1.30
2022,01,29,01,39,1.30
2022,01,29,01,40,1.20
2022,01,29,01,41,1.40
2022,01,29,01,42,1.40
2022,01,29,01,43,1.50
2022,01,29,01,44,1.50
2022,01,29,01,45,1.40
2022,01,29,01,46,1.50
2022,01,29,01,47,1.50
2022,01,29,01,48,1.50
2022,01,29,01,49,1.60
2022,01,29,01,50,1.70
2022,01,29,01,51,1.70
2022,01,29,01,52,1.70
2022,01,29,01,53,1.70
2022,01,29,01,54,1.70
2022,01,29,01,55,1.70
2022,01,29,01,56,1.80
2022,01,29,01,57,1.80
2022,01,29,01,58,1.80
2022,01,29,01,59,1.80
2022,01,29,02,00,1.70
2022,01,29,02,01,1.70
2022,01,29,02,02,1.80
2022,01,29,02,03,1.80
2022,01,29,02,04,1.80
2022,01,29,02,05,1.70
2022,01,29,02,06,1.70
2022,01,29,02,07,1.70
2022,01,29,02,08,1.70
2022,01,29,02,09,1.70
2022,01,29,02,10,1.80
2022,01,29,02,11,1.80
2022,01,29,02,12,1.80
2022,01,29,02,13,1.90
2022,01,29,02,14,1.90
2022,01,29,02,15,1.60
2022,01,29,02,16,1.30
2022,01,29,02,17,1.30
2022,01,29,02,18,1.40
2022,01,29,02,19,1.30
2022,01,29,02,20,1.50
2022,01,29,02,21,1.50
2022,01,29,02,22,1.60
2022,01,29,02,23,1.60
2022,01,29,02,24,1.60
2022,01,29,02,25,1.60
2022,01,29,02,26,1.60
2022,01,29,02,27,1.60
2022,01,29,02,28,1.60
2022,01,29,02,29,1.60
2022,01,29,02,30,1.60
2022,01,29,02,31,1.60
2022,01,29,02,32,1.60
2022,01,29,02,33,1.60
2022,01,29,02,34,1.60
2022,01,29,09,38,3.20
2022,01,29,09,39,3.20
2022,01,29,09,40,3.20
2022,01,29,09,41,3.20
2022,01,29,09,42,3.30
2022,01,29,09,43,3.30
2022,01,29,09,44,3.30
2022,01,29,09,45,3.40
2022,01,29,09,46,3.40
2022,01,29,09,47,3.50
2022,01,29,09,48,3.60
2022,01,29,09,49,3.70
2022,01,29,09,50,3.70
2022,01,29,09,51,3.70
2022,01,29,09,52,3.70
2022,01,29,09,53,3.70
2022,01,29,09,54,3.70
2022,01,29,09,55,3.60
2022,01,29,09,56,3.30
2022,01,29,09,57,2.80
2022,01,29,09,58,2.60
2022,01,29,09,59,2.70
2022,01,29,10,00,3.00
2022,01,29,10,01,3.10
2022,01,29,10,02,3.40
2022,01,29,10,03,3.70
2022,01,29,10,04,3.80
2022,01,29,10,05,3.80
2022,01,29,10,06,3.70
2022,01,29,10,07,3.80
2022,01,29,10,08,3.60
2022,01,29,10,09,3.40
2022,01,29,10,10,2.70
2022,01,29,10,11,2.40
2022,01,29,10,12,2.40
2022,01,29,10,13,2.40
2022,01,29,10,14,2.50
2022,01,29,10,15,2.50
2022,01,29,10,16,2.50
2022,01,29,10,17,2.50
2022,01,29,10,18,2.50
2022,01,29,10,19,2.60
2022,01,29,10,20,2.70
2022,01,29,10,21,2.60
2022,01,29,10,22,2.60
2022,01,29,10,23,2.60
2022,01,29,10,24,2.60
2022,01,29,10,25,2.60
2022,01,29,10,26,2.60
2022,01,29,10,27,2.70
2022,01,29,10,28,2.60
2022,01,29,10,29,2.80
2022,01,29,10,30,2.80
2022,01,29,10,31,2.70
2022,01,29,10,32,3.10
2022,01,29,10,33,3.20
2022,01,29,10,34,3.10
2022,01,29,10,35,3.30
2022,01,29,10,36,3.60
2022,01,29,10,37,3.80
2022,01,29,10,38,3.70
2022,01,29,10,39,3.50
2022,01,29,10,40,3.20
2022,01,29,10,41,3.10
2022,01,29,10,42,3.00
2022,01,29,10,43,3.10
2022,01,29,10,44,3.40
2022,01,29,10,45,3.80
2022,01,29,10,46,3.90
2022,01,29,10,47,3.90
2022,01,29,10,48,3.90
2022,01,29,10,49,3.90
2022,01,29,10,50,3.90
2022,01,29,10,51,3.90
2022,01,29,10,52,3.90
2022,01,29,10,53,3.90
2022,01,29,10,54,3.90
2022,01,29,10,55,2.80
2022,01,29,10,56,3.00
2022,01,29,10,57,6.80
2022,01,29,10,58,9.20
2022,01,29,10,59,4.90
2022,01,29,11,00,3.70
2022,01,29,11,01,3.70
2022,01,29,11,02,3.20
2022,01,29,11,03,3.30
2022,01,29,11,04,3.00
2022,01,29,11,05,3.00
2022,01,29,11,06,2.90
2022,01,29,11,07,3.00
2022,01,29,11,08,2.90
2022,01,29,11,09,3.00
2022,01,29,11,10,2.90
2022,01,29,11,11,2.90
2022,01,29,11,12,2.90
2022,01,29,11,13,2.80
2022,01,29,11,14,2.90
2022,01,29,11,15,2.90
2022,01,29,11,16,2.90
2022,01,29,11,17,3.00
2022,01,29,11,18,3.00
2022,01,29,11,19,3.00
2022,01,29,11,20,3.10
2022,01,29,11,21,3.20
2022,01,29,11,22,3.40
2022,01,29,11,23,3.40
2022,01,29,11,24,3.50
2022,01,29,11,25,3.60
2022,01,29,11,26,3.70
2022,01,29,11,27,3.90
2022,01,29,11,28,4.10
2022,01,29,11,29,4.10
2022,01,29,11,30,4.10
2022,01,29,11,31,4.10
2022,01,29,11,32,4.00
2022,01,29,11,33,4.10
2022,01,29,11,34,4.10
2022,01,29,11,35,4.20
2022,01,29,11,36,4.10
2022,01,29,11,37,4.20
2022,01,29,11,38,4.10
2022,01,29,11,39,4.00
2022,01,29,11,40,4.00
2022,01,29,11,41,4.00
2022,01,29,11,42,4.00
2022,01,29,11,43,3.90
2022,01,29,11,44,4.10
2022,01,29,11,45,4.20
2022,01,29,11,46,4.30
2022,01,29,11,47,4.30
2022,01,29,11,48,4.50
2022,01,29,11,49,4.60
2022,01,29,11,50,4.70
2022,01,29,11,51,4.80
2022,01,29,11,52,4.80
2022,01,29,11,53,4.80
2022,01,29,11,54,4.80
2022,01,29,11,55,4.80
2022,01,29,11,56,4.80
2022,01,29,11,57,4.80
2022,01,29,11,58,4.80
2022,01,29,11,59,4.70
2022,01,29,12,00,4.80
2022,01,29,12,01,4.80
2022,01,29,12,02,4.80
2022,01,29,12,03,4.80
2022,01,29,12,04,4.80
2022,01,29,12,05,4.80
2022,01,29,12,06,4.80
2022,01,29,12,07,4.90
2022,01,29,12,08,4.90
2022,01,29,12,09,4.90
2022,01,29,12,10,5.00
2022,01,29,12,11,5.00
2022,01,29,12,12,4.90
2022,01,29,12,13,5.00
2022,01,29,12,14,5.10
2022,01,29,12,15,5.10
2022,01,29,12,16,5.10
2022,01,29,12,17,5.10
2022,01,29,12,18,5.00
2022,01,29,12,19,4.10
2022,01,29,12,20,4.00
2022,01,29,12,21,4.40
2022,01,29,12,22,4.10
2022,01,29,12,23,3.90
2022,01,29,12,24,3.80
2022,01,29,12,25,3.80
2022,01,29,12,26,3.70
2022,01,29,12,27,3.70
2022,01,29,12,28,3.60
2022,01,29,12,29,3.60
2022,01,29,12,30,3.70
2022,01,29,12,31,3.80
2022,01,29,12,32,3.70
2022,01,29,12,33,3.70
2022,01,29,12,34,3.70
2022,01,29,12,35,3.70
2022,01,29,12,36,3.70
2022,01,29,12,37,3.90
2022,01,29,12,38,4.10
2022,01,29,12,39,4.20
2022,01,29,12,40,4.40
2022,01,29,12,41,4.30
2022,01,29,12,42,4.30
2022,01,29,12,43,4.40
2022,01,29,12,44,4.60
2022,01,29,12,45,4.50
2022,01,29,12,46,4.50
2022,01,29,12,47,4.50
2022,01,29,12,48,4.50
2022,01,29,12,49,4.50
2022,01,29,12,50,4.50
2022,01,29,12,51,4.30
2022,01,29,12,52,4.40
2022,01,29,12,53,4.40
2022,01,29,12,54,4.50
2022,01,29,12,55,4.60
2022,01,29,12,56,4.50
2022,01,29,12,57,4.60
2022,01,29,12,58,4.60
2022,01,29,12,59,4.70
2022,01,29,13,00,4.80
2022,01,29,13,01,4.90
2022,01,29,13,02,5.00
2022,01,29,13,03,5.00
2022,01,29,13,04,5.00
2022,01,29,13,05,4.90
2022,01,29,13,06,4.70
2022,01,29,13,07,3.60
2022,01,29,13,08,3.60
2022,01,29,13,09,3.60
2022,01,29,13,10,3.60
2022,01,29,13,11,3.60
2022,01,29,13,12,3.70
2022,01,29,13,13,3.70
2022,01,29,13,14,3.80
2022,01,29,13,15,4.10
2022,01,29,13,16,4.20
2022,01,29,13,17,4.40
2022,01,29,13,18,4.50
2022,01,29,13,19,4.60
2022,01,29,13,20,4.60
2022,01,29,13,21,4.70
2022,01,29,13,22,4.80
2022,01,29,13,23,4.90
2022,01,29,13,24,4.90
2022,01,29,13,25,4.90
2022,01,29,13,26,4.90
2022,01,29,13,27,5.00
2022,01,29,13,28,5.10
2022,01,29,13,29,5.10
2022,01,29,13,30,5.10
2022,01,29,13,31,5.10
2022,01,29,13,32,5.00
2022,01,29,13,33,4.20
2022,01,29,13,34,3.80
2022,01,29,13,35,3.90
2022,01,29,13,36,4.60
2022,01,29,13,37,5.00
2022,01,29,13,38,5.20
2022,01,29,13,39,5.20
2022,01,29,13,40,5.00
2022,01,29,13,41,5.20
2022,01,29,13,42,5.20
2022,01,29,13,43,5.30
2022,01,29,13,44,5.30
2022,01,29,13,45,4.30
2022,01,29,13,46,4.20
2022,01,29,13,47,4.70
2022,01,29,13,48,4.70
2022,01,29,13,49,4.60
2022,01,29,13,50,4.40
2022,01,29,13,51,4.10
2022,01,29,13,52,4.10
2022,01,29,13,53,4.10
2022,01,29,13,54,4.20
2022,01,29,13,55,4.20
2022,01,29,13,56,4.20
2022,01,29,13,57,4.10
2022,01,29,13,58,4.20
2022,01,29,13,59,4.10
2022,01,29,14,00,4.10
2022,01,29,14,01,4.20
2022,01,29,14,02,4.20
2022,01,29,14,03,4.40
2022,01,29,14,04,5.10
2022,01,29,14,05,5.40
2022,01,29,14,06,5.50
2022,01,29,14,07,5.50
2022,01,29,14,08,5.40
2022,01,29,14,09,5.50
2022,01,29,14,10,5.50
2022,01,29,14,11,5.50
2022,01,29,14,12,5.20
2022,01,29,14,13,4.20
2022,01,29,14,14,4.80
2022,01,29,14,15,4.90
2022,01,29,14,16,4.40
2022,01,29,14,17,4.50
2022,01,29,14,18,4.40
2022,01,29,14,19,4.30
2022,01,29,14,20,4.10
2022,01,29,14,21,4.10
2022,01,29,14,22,4.10
2022,01,29,14,23,4.10
2022,01,29,14,24,4.20
2022,01,29,14,25,4.60
2022,01,29,14,26,4.50
2022,01,29,14,27,4.30
2022,01,29,14,28,4.30
2022,01,29,14,29,4.30
2022,01,29,14,30,4.30
2022,01,29,14,31,4.20
2022,01,29,14,32,4.10
2022,01,29,14,33,4.10
2022,01,29,14,34,4.70
2022,01,29,14,35,4.90
2022,01,29,14,36,4.80
2022,01,29,14,37,5.10
2022,01,29,14,38,5.40
2022,01,29,14,39,5.40
2022,01,29,14,40,5.40
2022,01,29,14,41,5.40
2022,01,29,14,42,5.40
2022,01,29,14,43,5.40
2022,01,29,14,44,5.40
2022,01,29,14,45,5.40
2022,01,29,14,46,5.40
2022,01,29,14,47,5.40
2022,01,29,14,48,5.30
2022,01,29,14,49,5.30
2022,01,29,14,50,5.20
2022,01,29,14,51,4.30
2022,01,29,14,52,6.00
2022,01,29,14,53,15.30
2022,01,29,14,54,19.10
2022,01,29,14,55,26.80
2022,01,29,14,56,15.80
2022,01,29,14,57,6.70
2022,01,29,14,58,4.50
2022,01,29,14,59,5.20
2022,01,29,15,00,5.20
2022,01,29,15,01,5.40
2022,01,29,15,02,5.30
2022,01,29,15,03,5.00
2022,01,29,15,04,4.80
2022,01,29,15,05,4.40
2022,01,29,15,06,4.40
2022,01,29,15,07,5.50
2022,01,29,15,08,7.60
2022,01,29,15,09,5.90
2022,01,29,15,10,6.60
2022,01,29,15,11,8.60
2022,01,29,15,12,8.50
2022,01,29,15,13,6.50
2022,01,29,15,14,6.50
2022,01,29,15,15,8.20
2022,01,29,15,16,8.90
2022,01,29,15,17,11.50
2022,01,29,15,18,13.10
2022,01,29,15,19,13.10
2022,01,29,15,20,13.40
2022,01,29,15,21,15.60
2022,01,29,15,22,13.80
2022,01,29,15,23,17.20
2022,01,29,15,24,18.00
2022,01,29,15,25,15.00
2022,01,29,15,26,12.20
2022,01,29,15,27,12.20
2022,01,29,15,28,15.30
2022,01,29,15,29,15.90
2022,01,29,15,30,15.50
2022,01,29,15,31,11.00
2022,01,29,15,32,11.40
2022,01,29,15,33,10.50
2022,01,29,15,34,9.90
2022,01,29,15,35,7.80
2022,01,29,15,36,7.10
2022,01,29,15,37,5.30
2022,01,29,15,38,5.20
2022,01,29,15,39,4.50
2022,01,29,15,40,4.30
2022,01,29,15,41,4.40
2022,01,29,15,42,4.30
2022,01,29,15,43,4.50
2022,01,29,15,44,5.10
2022,01,29,15,45,4.70
2022,01,29,15,46,4.30
2022,01,29,15,47,4.40
2022,01,29,15,48,4.50
2022,01,29,15,49,4.50
2022,01,29,15,50,4.40
2022,01,29,15,51,4.40
2022,01,29,15,52,4.50
2022,01,29,15,53,4.50
2022,01,29,15,54,4.70
2022,01,29,15,55,4.80
2022,01,29,15,56,4.60
2022,01,29,15,57,4.50
2022,01,29,15,58,4.90
2022,01,29,15,59,5.00
2022,01,29,16,00,4.70
2022,01,29,16,01,4.70
2022,01,29,16,02,4.80
2022,01,29,16,03,5.00
2022,01,29,16,04,5.30
2022,01,29,16,05,5.40
2022,01,29,16,06,5.30
2022,01,29,16,07,5.10
2022,01,29,16,08,5.30
2022,01,29,16,09,5.30
2022,01,29,16,10,5.40
2022,01,29,16,11,5.30
2022,01,29,16,12,5.40
2022,01,29,16,13,5.50
2022,01,29,16,14,5.40
2022,01,29,16,15,5.70
2022,01,29,16,16,5.70
2022,01,29,16,17,5.70
2022,01,29,16,18,5.70
2022,01,29,16,19,5.70
2022,01,29,16,20,5.70
2022,01,29,16,21,5.70
2022,01,29,16,22,5.70
2022,01,29,16,23,5.60
2022,01,29,16,24,5.60
2022,01,29,16,25,5.50
2022,01,29,16,26,4.60
2022,01,29,16,27,4.80
2022,01,29,16,28,5.20
2022,01,29,16,29,5.20
2022,01,29,16,30,4.90
2022,01,29,16,31,4.80
2022,01,29,16,32,4.70
2022,01,29,16,33,4.70
2022,01,29,16,34,5.00
2022,01,29,16,35,4.80
2022,01,29,16,36,4.40
2022,01,29,16,37,4.30
2022,01,29,16,38,5.00
2022,01,29,16,39,5.70
2022,01,29,16,40,5.70
2022,01,29,16,41,5.70
2022,01,29,16,42,5.70
2022,01,29,16,43,5.70
2022,01,29,16,44,5.00
2022,01,29,16,45,4.30
2022,01,29,16,46,4.80
2022,01,29,16,47,5.30
2022,01,29,16,48,5.50
2022,01,29,16,49,5.70
2022,01,29,16,50,4.80
2022,01,29,16,51,4.40
2022,01,29,16,52,5.10
2022,01,29,16,53,5.00
2022,01,29,16,54,4.50
2022,01,29,16,55,4.40
2022,01,29,16,56,4.50
2022,01,29,16,57,4.80
2022,01,29,16,58,4.80
2022,01,29,16,59,4.90
2022,01,29,17,00,5.20
2022,01,29,17,01,5.40
2022,01,29,17,02,4.90
2022,01,29,17,03,4.70
2022,01,29,17,04,4.50
2022,01,29,17,05,4.30
2022,01,29,17,06,4.40
2022,01,29,17,07,4.40
2022,01,29,17,08,4.40
2022,01,29,17,09,4.40
2022,01,29,17,10,4.30
2022,01,29,17,11,4.30
2022,01,29,17,12,4.40
2022,01,29,17,13,4.40
2022,01,29,17,14,4.40
2022,01,29,17,15,4.30
2022,01,29,17,16,4.40
2022,01,29,17,17,4.90
2022,01,29,17,18,5.80
2022,01,29,17,19,5.70
2022,01,29,17,20,5.70
2022,01,29,17,21,5.70
2022,01,29,17,22,5.60
2022,01,29,17,23,5.20
2022,01,29,17,24,4.60
2022,01,29,17,25,4.50
2022,01,29,17,26,4.60
2022,01,29,17,27,4.50
2022,01,29,17,28,4.40
2022,01,29,17,29,4.40
2022,01,29,17,30,4.30
2022,01,29,17,31,4.40
2022,01,29,17,32,4.50
2022,01,29,17,33,4.70
2022,01,29,17,34,4.60
2022,01,29,17,35,4.80
2022,01,29,17,36,5.10
2022,01,29,17,37,5.00
2022,01,29,17,38,5.10
2022,01,29,17,39,5.10
2022,01,29,17,40,5.10
2022,01,29,17,41,5.00
2022,01,29,17,42,5.10
2022,01,29,17,43,5.10
2022,01,29,17,44,5.20
2022,01,29,17,45,5.50
2022,01,29,17,46,5.60
2022,01,29,17,47,5.60
2022,01,29,17,48,5.60
2022,01,29,17,49,5.60
2022,01,29,17,50,5.60
2022,01,29,17,51,5.60
2022,01,29,17,52,5.60
2022,01,29,17,53,5.60
2022,01,29,17,54,5.50
2022,01,29,17,55,5.30
2022,01,29,17,56,5.40
2022,01,29,17,57,5.40
2022,01,29,17,58,5.50
2022,01,29,17,59,5.50
2022,01,29,18,00,5.60
2022,01,29,18,01,5.60
2022,01,29,18,02,5.60
2022,01,29,18,03,5.60
2022,01,29,18,04,5.50
2022,01,29,18,05,5.50
2022,01,29,18,06,5.50
2022,01,29,18,07,5.60
2022,01,29,18,08,5.60
2022,01,29,18,09,5.60
2022,01,29,18,10,5.70
2022,01,29,18,11,5.70
2022,01,29,18,12,5.70
2022,01,29,18,13,5.70
2022,01,29,18,14,5.70
2022,01,29,18,15,5.70
2022,01,29,18,16,5.70
2022,01,29,18,17,5.60
2022,01,29,18,18,5.60
2022,01,29,18,19,5.60
2022,01,29,18,20,5.70
2022,01,29,18,21,5.70
2022,01,29,18,22,5.70
2022,01,29,18,23,5.70
2022,01,29,18,24,5.70
2022,01,29,18,25,5.70
2022,01,29,18,26,5.70
2022,01,29,18,27,5.70
2022,01,29,18,28,5.70
2022,01,29,18,29,5.70
2022,01,29,18,30,5.70
2022,01,29,18,31,5.70
2022,01,29,18,32,5.70
2022,01,29,18,33,5.70
2022,01,29,18,34,5.60
2022,01,29,18,35,5.30
2022,01,29,18,36,5.20
2022,01,29,18,37,5.00
2022,01,29,18,38,5.30
2022,01,29,18,39,5.40
2022,01,29,18,40,5.40
2022,01,29,18,41,5.50
2022,01,29,18,42,5.50
2022,01,29,18,43,5.50
2022,01,29,18,44,5.50
2022,01,29,18,45,5.60
2022,01,29,18,46,5.70
2022,01,29,18,47,5.60
2022,01,29,18,48,5.60
2022,01,29,18,49,5.60
2022,01,29,18,50,5.70
2022,01,29,18,51,5.70
2022,01,29,18,52,5.70
2022,01,29,18,53,5.80
2022,01,29,18,54,5.80
2022,01,29,18,55,5.80
2022,01,29,18,56,5.80
2022,01,29,18,57,5.80
2022,01,29,18,58,5.80
2022,01,29,18,59,5.80
2022,01,29,19,00,5.80
2022,01,29,19,01,5.80
2022,01,29,19,02,5.80
2022,01,29,19,03,5.80
2022,01,29,19,04,5.80
2022,01,29,19,05,5.80
2022,01,29,19,06,5.80
2022,01,29,19,07,5.80
2022,01,29,19,08,5.80
2022,01,29,19,09,5.80
2022,01,29,19,10,5.80
2022,01,29,19,11,5.80
2022,01,29,19,12,5.70
2022,01,29,19,13,5.70
2022,01,29,19,14,5.70
2022,01,29,19,15,5.80
2022,01,29,19,16,5.80
2022,01,29,19,17,5.80
2022,01,29,19,18,5.80
2022,01,29,19,19,5.80
2022,01,29,19,20,5.80
2022,01,29,19,21,5.80
2022,01,29,19,22,5.80
2022,01,29,19,23,5.80
2022,01,29,19,24,5.80
2022,01,29,19,25,5.80
2022,01,29,19,26,5.80
2022,01,29,19,27,5.80
2022,01,29,19,28,5.80
2022,01,29,19,29,5.80
2022,01,29,19,30,5.80
2022,01,29,19,31,5.80
2022,01,29,19,32,5.80
2022,01,29,19,33,5.80
2022,01,29,19,34,5.80
2022,01,29,19,35,5.80
2022,01,29,19,36,5.80
2022,01,29,19,37,5.80
2022,01,29,19,38,5.80
2022,01,29,19,39,5.80
2022,01,29,19,40,5.90
2022,01,29,19,41,5.80
2022,01,29,19,42,5.80
2022,01,29,19,43,5.90
2022,01,29,19,44,5.80
2022,01,29,19,45,5.80
2022,01,29,19,46,5.80
2022,01,29,19,47,5.90
2022,01,29,19,48,5.80
2022,01,29,19,49,5.80
2022,01,29,19,50,5.80
2022,01,29,19,51,5.80
2022,01,29,19,52,5.80
2022,01,29,19,53,5.90
2022,01,29,19,54,5.90
2022,01,29,19,55,5.90
2022,01,29,19,56,5.90
2022,01,29,19,57,5.90
2022,01,29,19,58,5.90
2022,01,29,19,59,5.90
2022,01,29,20,00,5.90
2022,01,29,20,01,5.90
2022,01,29,20,02,5.90
2022,01,29,20,03,5.90
2022,01,29,20,04,5.80
2022,01,29,20,05,5.80
2022,01,29,20,06,5.70
2022,01,29,20,07,5.60
2022,01,29,20,08,4.90
2022,01,29,20,09,4.50
2022,01,29,20,10,4.50
2022,01,29,20,11,4.50
2022,01,29,20,12,4.50
2022,01,29,20,13,4.50
2022,01,29,20,14,4.70
2022,01,29,20,15,5.20
2022,01,29,20,16,5.50
2022,01,29,20,17,5.50
2022,01,29,20,18,5.60
2022,01,29,20,19,5.60
2022,01,29,20,20,5.70
2022,01,29,20,21,5.70
2022,01,29,20,22,5.70
2022,01,29,20,23,5.70
2022,01,29,20,24,5.70
2022,01,29,20,25,5.80
2022,01,29,20,26,5.80
2022,01,29,20,27,5.80
2022,01,29,20,28,5.90
2022,01,29,20,29,5.90
2022,01,29,20,30,5.90
2022,01,29,20,31,5.90
2022,01,29,20,32,5.90
2022,01,29,20,33,5.90
2022,01,29,20,34,5.90
2022,01,29,20,35,5.90
2022,01,29,20,36,5.90
2022,01,29,20,37,5.90
2022,01,29,20,38,5.90
2022,01,29,20,39,5.90
2022,01,29,20,40,5.90
2022,01,29,20,41,5.90
2022,01,29,20,42,5.90
2022,01,29,20,43,5.90
2022,01,29,20,44,5.90
2022,01,29,20,45,5.90
2022,01,29,20,46,5.90
2022,01,29,20,47,5.90
2022,01,29,20,48,5.90
2022,01,29,20,49,5.90
2022,01,29,20,50,5.90
2022,01,29,20,51,5.90
2022,01,29,20,52,5.90
2022,01,29,20,53,5.90
2022,01,29,20,54,5.90
2022,01,29,20,55,5.90
2022,01,29,20,56,5.90
2022,01,29,20,57,5.90
2022,01,29,20,58,5.90
2022,01,29,20,59,5.90
2022,01,29,21,00,5.90
2022,01,29,21,01,5.90
2022,01,29,21,02,5.90
2022,01,29,21,03,5.90
2022,01,29,21,04,5.90
2022,01,29,21,05,5.90
2022,01,29,21,06,5.90
2022,01,29,21,07,5.90
2022,01,29,21,08,5.90
2022,01,29,21,09,5.90
2022,01,29,21,10,5.90
2022,01,29,21,11,5.90
2022,01,29,21,12,5.90
2022,01,29,21,13,5.90
2022,01,29,21,14,5.90
2022,01,29,21,15,5.90
2022,01,29,21,16,5.90
2022,01,29,21,17,5.90
2022,01,29,21,18,5.90
2022,01,29,21,19,5.90
2022,01,29,21,20,5.90
2022,01,29,21,21,5.90
2022,01,29,21,22,5.90
2022,01,29,21,23,5.90
2022,01,29,21,24,5.90
2022,01,29,21,25,5.90
2022,01,29,21,26,5.90
2022,01,29,21,27,5.90
2022,01,29,21,28,5.90
2022,01,29,21,29,5.90
2022,01,29,21,30,5.90
2022,01,29,21,31,5.90
2022,01,29,21,32,5.90
2022,01,29,21,33,5.90
2022,01,29,21,34,5.90
2022,01,29,21,35,5.90
2022,01,29,21,36,5.90
2022,01,29,21,37,5.90
2022,01,29,21,38,5.90
2022,01,29,21,39,5.90
2022,01,29,21,40,5.90
2022,01,29,21,41,5.90
2022,01,29,21,42,5.90
2022,01,29,21,43,5.90
2022,01,29,21,44,5.90
2022,01,29,21,45,5.90
2022,01,29,21,46,5.90
2022,01,29,21,47,5.90
2022,01,29,21,48,5.90
2022,01,29,21,49,5.90
2022,01,29,21,50,6.00
2022,01,29,21,51,5.90
2022,01,29,21,52,6.00
2022,01,29,21,53,6.00
2022,01,29,21,54,6.00
2022,01,29,21,55,6.00
2022,01,29,21,56,6.00
2022,01,29,21,57,6.00
2022,01,29,21,58,6.00
2022,01,29,21,59,6.00
2022,01,29,22,00,5.90
2022,01,29,22,01,5.90
2022,01,29,22,02,5.90
2022,01,29,22,03,6.00
2022,01,29,22,04,6.00
2022,01,29,22,05,6.00
2022,01,29,22,06,6.00
2022,01,29,22,07,6.00
2022,01,29,22,08,6.00
2022,01,29,22,09,6.00
2022,01,29,22,10,6.00
2022,01,29,22,11,6.00
2022,01,29,22,12,6.00
2022,01,29,22,13,5.90
2022,01,29,22,14,6.00
2022,01,29,22,15,6.00
2022,01,29,22,16,6.00
2022,01,29,22,17,6.00
2022,01,29,22,18,6.00
2022,01,29,22,19,6.00
2022,01,29,22,20,6.00
2022,01,29,22,21,6.00
2022,01,29,22,22,6.00
2022,01,29,22,23,6.00
2022,01,29,22,24,6.00
2022,01,29,22,25,5.90
2022,01,29,22,26,5.90
2022,01,29,22,27,5.90
2022,01,29,22,28,5.90
2022,01,29,22,29,5.90
2022,01,29,22,30,5.90
2022,01,29,22,31,5.90
2022,01,29,22,32,5.90
2022,01,29,22,33,5.90
2022,01,29,22,34,5.90
2022,01,29,22,35,5.90
2022,01,29,22,36,5.90
2022,01,29,22,37,5.90
2022,01,29,22,38,5.90
2022,01,29,22,39,5.90
2022,01,29,22,40,5.90
2022,01,29,22,41,5.90
2022,01,29,22,42,5.90
2022,01,29,22,43,5.90
2022,01,29,22,44,5.90
2022,01,29,22,45,5.90
2022,01,29,22,46,5.90
2022,01,29,22,47,5.90
2022,01,29,22,48,5.90
2022,01,29,22,49,5.90
2022,01,29,22,50,6.00
2022,01,29,22,51,5.90
2022,01,29,22,52,6.00
2022,01,29,22,53,6.00
2022,01,29,22,54,6.00
2022,01,29,22,55,6.00
2022,01,29,22,56,6.00
2022,01,29,22,57,6.00
2022,01,29,22,58,6.00
2022,01,29,22,59,6.00
2022,01,29,23,00,6.00
2022,01,29,23,01,6.00
2022,01,29,23,02,6.00
2022,01,29,23,03,6.00
2022,01,29,23,04,6.00
2022,01,29,23,05,6.00
2022,01,29,23,06,6.10
2022,01,29,23,07,6.10
2022,01,29,23,08,6.10
2022,01,29,23,09,6.10
2022,01,29,23,10,6.00
2022,01,29,23,11,6.00
2022,01,29,23,12,6.10
2022,01,29,23,13,6.10
2022,01,29,23,14,6.10
2022,01,29,23,15,6.10
2022,01,29,23,16,6.10
2022,01,29,23,17,6.10
2022,01,29,23,18,6.10
2022,01,29,23,19,6.10
2022,01,29,23,20,6.10
2022,01,29,23,21,6.10
2022,01,29,23,22,6.10
2022,01,29,23,23,6.10
2022,01,29,23,24,6.20
2022,01,29,23,25,6.10
2022,01,29,23,26,6.20
2022,01,29,23,27,6.20
2022,01,29,23,28,6.20
2022,01,29,23,29,6.20
2022,01,29,23,30,6.20
2022,01,29,23,31,6.20
2022,01,29,23,32,6.20
2022,01,29,23,33,6.20
2022,01,29,23,34,6.20
2022,01,29,23,35,6.20
2022,01,29,23,36,6.20
2022,01,29,23,37,6.20
2022,01,29,23,38,6.20
2022,01,29,23,39,6.20
2022,01,29,23,40,6.20
2022,01,29,23,41,6.20
2022,01,29,23,42,6.20
2022,01,29,23,43,6.20
2022,01,29,23,44,6.20
2022,01,29,23,45,6.30
2022,01,29,23,46,6.30
2022,01,29,23,47,6.30
2022,01,29,23,48,6.30
2022,01,29,23,49,6.20
2022,01,29,23,50,6.20
2022,01,29,23,51,6.30
2022,01,29,23,52,6.30
2022,01,29,23,53,6.40
2022,01,29,23,54,6.40
2022,01,29,23,55,6.40
2022,01,29,23,56,6.40
2022,01,29,23,57,6.40
2022,01,29,23,58,6.40
2022,01,29,23,59,6.40
